Погода Ханты-Мансийск

Погода Ханты-Мансийск : погода сейчас, прогноз погоды и архив. Всё, что Вы хотите узнать о погоде Ханты-Мансийск!

Хотите узнать прогноз погоды Ханты-Мансийск? Тогда Вам сюда: Погода Ханты-Мансийск

Поиск расширенной информации на нашем сайте:

Другие новости

Новости СМИ2

Главная страница сайта

Новости сайта

03.07.2017

Напоминаем, что на нашем специализированном сайте Метеоцентр.Азия вы можете получить высокодетализированные автоматические прогнозы погоды по пунктам России, СНГ и мира в авиационном формате (включающие направление и скорость ветра, видимость, явления погоды, количество и форму облачности, нижнюю и верхнюю границу облачности).


Погода Ханты-Мансийск - сегодня

Время (UTC), дата Ветер
(°,м/с) 
Видим.   Явления Облачность Т
(°С)
Тd
(°С)
f(%) Тe
(°С)
Pmin
(гПа)
dP
(гПа)
Po
(мм)
O2
(г/м3)
Тmin Tmax R s Состояние
почвы
18 15.06.18 320 (СЗ) 4000 м  слаб. ливневой дождь  10/10 600 м кучево-дожд. 
[Cb cap]
+11.3 +10.4 94 +14  1004.1  749  288           
21 15.06.18 290 (З) 4000 м  слаб. ливневой дождь  10/10 600 м кучево-дожд. 
[Cb cap]
+10 +8.9 93 +10  1003.7  -0.4  749  289           
00 16.06.18 290 (З) 4000 м  слаб. ливневой дождь  10/10 600 м кучево-дожд. 
[Cb cap]
+10 +8.9 93 +10  1002.7  -1  748  289           
03 16.06.18 270 (З) 4000 м  слаб. ливневой дождь  10/10 600 м кучево-дожд. 
[Cb cap]
+10.3 +9.1 92 +10  1002.6  0.1  748  289  +9.6       
06 16.06.18 260 (З) 4000 м  слаб. ливневой дождь  10/10 600 м кучево-дожд. 
[Cb cap]
+11.4 +9.6 89 +13  1003.6  749  288           
09 16.06.18 260 (З) 10 км  {ливн. осадки}  10/3 600 м кучево-дожд., средняя, верхняя 
[Cb cap|Ac As|Cs]
+13.9 +8.1 68 +14  1004.8  1.2  750  286           
12 16.06.18 330 (СЗ) 10 км  {ливн. осадки}  10/3 1000 м средняя, верхняя 
[Sc|As trans|Cs]
+15 +9 67 +16  1005.7  0.9  750  285           
18 16.06.18 тихо ()   10 км    8/8 1000 м 
[Sc diur, vesp]
+11.2 +9.5 89 +12  1007.1  0.6  751  289           
21 16.06.18 тихо ()   10 км  туман поземный  4/4 1000 м 
[Sc]
+8.4 +7.6 95 +8  1007.2  0.1  751  292           
00 17.06.18 тихо ()   10 км    9/9 1000 м 
[Sc]
+9.6 +8.9 95 +10  1007.2  0.1  751  291           
03 17.06.18 320 (СЗ) 10 км    10/0 средняя 
[As trans]
+12.8 +10.1 84 +15  1006.8  -0.4  751  287  +7.7        влажная 
06 17.06.18 290 (З) 10 км  слаб. дождь  10/6 1000 м средняя 
[Sc|As trans]
+12.8 +9.3 79 +14  1006.1  -0.7  751  287           
09 17.06.18 240 (ЮЗ) 10 км  слаб. дождь  10/10 1000 м 
[Sc]
+10.7 +7.5 81 +10  1003.5  -2.6  749  289           
12 17.06.18 220 (ЮЗ) 4000 м  слаб. дождь  10/10 1000 м 
[Sc]
+11 +10.1 94 +12  1001.6  -1.9  747  288           
15 17.06.18 160 (Ю) 10 км  слаб. дождь  10/10 1000 м 
[Sc]
+10.6 +9.5 93 +11  1000.7  -0.8  747  288    +13.1  11     
18 17.06.18 160 (Ю) 4000 м  слаб. ливневой дождь  10/10 300 м кучево-дожд. 
[Cb cap]
+10.2 +9.1 93 +10  1001.5  0.8  747  289           
21 17.06.18 110 (В) 10 км  {ливн. осадки}  10/9 600 м кучево-дожд., средняя 
[Cb cap|As trans]
+10 +8.8 92 +10  1002.2  0.7  748  289           
00 18.06.18 010 (С) 10 км  {ливн. осадки}  9/4 600 м средняя 
[Sc|Ac As]
+9.1 +8.1 93 +10  1002.5  0.3  748  290           
03 18.06.18 010 (С) 10 км  {дождь}  10/8 600 м средняя 
[Sc|Ac As]
+12.7 +9.7 82 +14  1001.5  -1  747  286  +8.7       
06 18.06.18 040 (СВ) 10 км  {дождь}  10/0 верхняя 
[Cs]
+17.1 +11.1 68 +21  1000.8  -0.6  747  281           
09 18.06.18 180 (Ю) 10 км  гроза без осадков{ливн. осадки}  10/10 600 м кучево-дожд. 
[Cb calv]
+12.5 +8.7 78 +12  1001  0.2  747  286           
12 18.06.18 330 (СЗ) 4000 м  слаб. ливневой дождь{гроза}  10/10 600 м кучево-дожд. 
[Cb cap]
+10.9 +9.9 94 +13  1001.1  747  288           
15 18.06.18 030 (СВ) 10 км  {ливн. осадки}  10/3 600 м средняя, верхняя 
[Cu hum|Ac As|Cs]
+11.3 +9.8 90 +13  1002  0.9  748  287    +19.5  10     
18 18.06.18 020 (С) 10 км  слаб. ливневой дождь  1/1 600 м кучево-дожд. 
[Cb cap]
+10.5 +9.4 93 +12  1001.6  -0.4  747  288           
21 18.06.18 030 (СВ) 10 км  {ливн. осадки}  10/10 600 м кучево-дожд. 
[Cb cap]
+10.9 +9.9 94 +13  1001.1  -0.5  747  288           
Время (UTC), дата Ветер
(°,м/с) 
Видим.   Явления Облачность Т
(°С)
Тd
(°С)
f(%) Тe
(°С)
Pmin
(гПа)
dP
(гПа)
Po
(мм)
O2
(г/м3)
Тmin Tmax R s Состояние
почвы

Для получения пояснительной информации подведите курсор к названию столбца.

ПОГОДА Ханты-Мансийск - архив

Всё, что Вы хотите узнать о погоде Ханты-Мансийск - удобно и подробно!

Выберите нужную дату (начиная с 1 января 2015* года) и нажмите кнопку "Найти".
Будут отображены архивные сводки погоды по пункту Ханты-Мансийск, начиная с указанной даты.


Отображать данные в формате CSV (для использования в таблицах Excel)


Внимание! Наш архив погоды предназначен исключительно для личного некоммерческого использования в познавательных целях. Если Вам необходимы официальные справки о состоянии погоды (для производственных, юридических, коммерческих и т.п. целей), обращайтесь в органы Росгидромета.

*Примечание: данная дата относится к архиву по метеостанциям СССР (Россия, СНГ, Балтия).
Архив по метеостанциям Зарубежной Европы и Азии (кроме Китая) хранится 10 дней, по другим регионам земного шара (Китай, Африка, Америка, Австралия, Океания) - 1 день.

Ханты-Мансийск - район местоположения метеостанции


Название, широта, долгота, высота метеостанции:
Ханты-Мансийск 61°ш. 69°д. 46 м над ур. моря [Российская Федерация]

Дополнительная информация

В oтличие oт бoльшинства пoгoдных сайтoв мы публикуем пoдрoбную метеoинфoрмацию в детальнoм прoфессиoнальнoм фoрмате.

Характеристики температуры и влажнoсти вoздуха измеряются на высoте 2 м в тени вдали oт зданий и деревьев.
Скoрoсть ветра измеряется на высoте 10 м (на урoвне рoста челoвека скoрoсть ветра ниже в 1.5-2 раза). Если метеoстанция нахoдится в гoрoде или в лесу, тo скoрoсть ветра занижена на 2-4 м/с пo сравнению с oткрытым местoм. Скoрoсть ветра над акватoриями крупных рек и oзёр, а также на вершинах хoлмoв на 2-5 м/с выше, чем в oбычных услoвиях.
Атмoсфернoе давление в разных тoчках местнoсти мoжет значительнo oтличаться oт давления на метеoстанции, в зависимoсти oт услoвий рельефа (при пoдъёме на 10 м давление пoнижается примернo на 1 мм рт.ст.).